Regional Weather Roundup
Issued by NWS

Home | Current Version | Previous Version | Text Only | Print | Product List | Glossary Off
Versions: 1 2 3 4 5 6 7 8 9 10 11 12 13 14 15 16 17 18 19 20 21 22 23 24 25 26 27 28 29 30 31 32 33 34 35 36 37 38 39 40 41 42 43 44 45 46 47 48 49 50

000
ASUS43 KMKX 302200
RWRWI

WISCONSIN REGIONAL WEATHER ROUNDUP
NATIONAL WEATHER SERVICE MILWAUKEE/SULLIVAN WI
500 PM CDT THU JUL 30 2015

NOTE: "FAIR" INDICATES FEW OR NO CLOUDS BELOW 12,000 FEET WITH NO
SIGNIFICANT WEATHER AND/OR OBSTRUCTIONS TO VISIBILITY.

WIZ001-002-006>008-014>016-023>028-302300-
NORTHWEST WISCONSIN

CITY           SKY/WX    TMP DP  RH WIND       PRES   REMARKS
SUPERIOR ARPT  MOSUNNY   82  54  38 W18G24    29.92S HX  81
ASHLAND        MOSUNNY   82  54  37 W10G22    29.90F HX  81
HAYWARD        MOSUNNY   80  56  43 W13G21    29.96F HX  80
SIREN          MOSUNNY   83  51  33 W16G23    29.98S HX  81
CUMBERLAND     MOSUNNY   79  55  44 W16       30.00F
RICE LAKE      MOSUNNY   79  58  48 W13G18    30.01S HX  80
CHETEK         PTSUNNY   80  58  45 W14G24    30.00S HX  81
LADYSMITH      MOSUNNY   80  55  41 W17G24    30.00S HX  80
EAU CLAIRE     NOT AVBL
MENOMONIE      MOSUNNY   83  53  35 W15       30.01F HX  82
NEW RICHMOND   SUNNY     82  54  37 W15G23    30.02S HX  81
OSCEOLA        MOSUNNY   82  53  36 W17G25    30.04S HX  81
$$

WIZ003>005-009-010-017-018-302300-
NORTH CENTRAL WISCONSIN

CITY           SKY/WX    TMP DP  RH WIND       PRES   REMARKS
MANITOWISH WTR MOSUNNY   66  61  83 CALM      29.96F
ARBOR VITAE    PTSUNNY   71  60  67 N6        29.98R
WOODRUFF       PTSUNNY   71  60  67 N6        29.98R
RHINELANDER    PTSUNNY   73  51  46 W16G25    29.98R
EAGLE RIVER    HVY RAIN  65  57  76 NW21G33   30.01R
LAND O LAKES   PTSUNNY   65  59  80 W5        29.97F
PHILLIPS       MOSUNNY   68  62  79 CALM      29.97F
TOMAHAWK       PTSUNNY   74  56  52 CALM      29.98F
MEDFORD        PTSUNNY   78  57  48 W16G23    29.98F
MERRILL        NOT AVBL
$$

WIZ029-030-035-036-043>047-302300-
CENTRAL WISCONSIN

CITY           SKY/WX    TMP DP  RH WIND       PRES   REMARKS
WAUSAU         CLOUDY    77  52  41 VRB6      29.96S
MOSINEE        MOSUNNY   81  54  39 W17G25    29.99S HX  80
MARSHFIELD     SUNNY     82  52  35 NW17G25   29.99F HX  81
STEVENS POINT  MOSUNNY   82  54  37 W20G28    29.98S HX  81
WAUPACA        SUNNY     87  49  26 W15G24    29.96S HX  84
WAUTOMA        NOT AVBL
WISC RAPIDS    SUNNY     85  50  29 W13       29.99F HX  83
CAMP DOUGLAS   NOT AVBL
$$

WIZ011>013-019>022-031-037>040-048>050-302300-
NORTHEAST WISCONSIN

CITY           SKY/WX    TMP DP  RH WIND       PRES   REMARKS
ANTIGO         MOSUNNY   75  56  50 W14       29.98R
SHAWANO        MOSUNNY   85  53  33 W10G18    29.93F HX  83
OCONTO         SUNNY     86  54  33 W10G18    29.90S HX  84
STURGEON BAY   SUNNY     82  54  36 W12G18    29.93S HX  81
GREEN BAY      MOSUNNY   84  60  44 NW13      29.93S HX  84
MANITOWOC      NOT AVBL
APPLETON       MOSUNNY   84  46  26 W21G26    29.95F HX  82
CLINTONVILLE   MOSUNNY   82  52  34 W12       29.94S HX  81
OSHKOSH        MOSUNNY   84  52  33 W8G21     29.95F HX  82
$$

WIZ032>034-041-042-053>061-302300-
SOUTHWEST WISCONSIN

CITY           SKY/WX    TMP DP  RH WIND       PRES   REMARKS
LA CROSSE      SUNNY     86  55  34 W15       30.02S HX  84
SPARTA         SUNNY     85  50  30 W14       30.03S HX  82
VIROQUA        SUNNY     82  51  34 W14G21    30.06S HX  81
BOSCOBEL       SUNNY     87  56  34 W13G24    30.03S HX  85
PRAIRIE DU CHI SUNNY     87  50  27 W17       30.04S HX  84
PLATTEVILLE    SUNNY     85  59  41 W10G18    30.05F HX  84
$$

WIZ056-057-062-063-064-067-068-302300-
SOUTH CENTRAL WISCONSIN

CITY           SKY/WX    TMP DP  RH WIND       PRES   REMARKS
REEDSBURG      SUNNY     85  54  34 W15G25    30.01F HX  84
BARABOO/DELLS  SUNNY     85  46  24 NW15G26   30.01F HX  83
LONE ROCK      NOT AVBL
MINERAL POINT  SUNNY     86  48  26 W15G22    30.05F HX  83
MADISON        MOSUNNY   85  54  34 NW12G23   30.00F HX  83
MIDDLETON      SUNNY     87  46  24 W13G24    30.02S HX  84
WATERTOWN      SUNNY     84  56  38 W13G23    29.99F HX  83
MONROE         SUNNY     86  52  30 W20       30.04F HX  84
JANESVILLE     MOSUNNY   88  48  25 W16G22    30.01F HX  85
$$

WIZ051-052-058>065-066-070>072-302300-
SOUTHEAST WISCONSIN

CITY           SKY/WX    TMP DP  RH WIND       PRES   REMARKS
MILWAUKEE      MOSUNNY   87  49  26 W16G26    29.98F HX  84
WAUKESHA       MOSUNNY   84  50  30 W20G26    30.00F HX  82
MILWAUKEE/TIMM NOT AVBL
RACINE         MOSUNNY   87  51  28 W12G23    30.00F HX  85
BURLINGTON     SUNNY     85  51  30 W14G20    30.01F HX  83
KENOSHA        SUNNY     85  57  38 W10       30.00F HX  84
FOND DU LAC    MOSUNNY   84  53  34 W15G22    29.96F HX  82
SHEBOYGAN      MOSUNNY   85  54  34 W15G23    29.94F HX  83
WEST BEND      MOSUNNY   84  46  26 W15G30    29.98S HX  82
JUNEAU         SUNNY     82  55  38 W10G23    30.00F HX  82
$$

LSZ147-162-302300-
LAKE SUPERIOR

STATION/POSITION TIME  TEMP    WIND        PRES    WAVE
                       AIR SEA DIR/SP/G            HT/PER
                 (UTC) (F)     (DEG/KT/KT) (MB)    (FT/S)
W MID LAKE BUOY  2050   60 53  240/ 14/ 16 1011.3F   2/ 4
DEVILS ISLAND    2100   67     220/ 13/ 15 1012.0F
PORT WING        2140   78     250/ 14/ 20 1012.2F
SAXON HARBOR     2100   73                 1012.9F
$$

LMZ867-665-643>646-302300-
LAKE MICHIGAN

STATION/POSITION TIME  TEMP    WIND        PRES    WAVE
                       AIR SEA DIR/SP/G            HT/PER
                 (UTC) (F)     (DEG/KT/KT) (MB)    (FT/S)
CHAMBERS ISLAND  2100   77      CALM  /  9 1011.9F
S GREEN BAY BUOY 2100   74 67  290/  8/ 10 1014.1
N MID LAKE BUOY  2050   72 69  280/ 10/ 10 1011.5R   2/ 5
NORTHPORT PIER   2100   78     310/ 11/ 14 1011.9S
SISTER BAY       2144   80     330/ 11/ 12   N/A
ALGOMA LAKESHORE 2112          260/ 11/ 15   N/A
KEWAUNEE LAKESHO 2100   84     300/  9/ 16 1012.7F
SHEBOYGAN LAKESH 2100   84     290/ 16/ 19 1014.0F
PORT WASHINGTON  2100   87     300/  9/ 14 1014.9F
ATWATER BUOY     2100   77 59  270/ 16/ 19 1016.5F
MILWAUKEE LAKESH 2100   84     280/ 17/ 26   N/A
KENOSHA   LAKESH 2100   85     300/ 18/ 22 1014.9F
$$

TC  - TEMPERATURE IN CELSIUS
VSB - VISIBILITY IN STATUTE MILES
WCI - WIND CHILL INDEX
HX  - HEAT INDEX



USA.gov is the U.S. government's official web portal to all federal, state and local government web resources and services.